World > North America > United States > Washington

Hourly Conway, WA Regional Weather

Feedback E-mail the Weather

Quick WX

Conway, WA Weather Maps

°F °C°F °C
Conway Weather Map
UTC Time: 6/26/2022, 08:16
Your Time:

Conway, WA Regional Weather

Expires:202206260900;;208012
ASUS46 KSEW 260810
RWRWA 

WASHINGTON REGIONAL WEATHER ROUNDUP
NATIONAL WEATHER SERVICE SEATTLE WA
100 AM PDT SUN JUN 26 2022

NOTE:"FAIR" INDICATES FEW OR NO CLOUDS BELOW 12,000 FEET WITH NO 
SIGNIFICANT WEATHER AND/OR OBSTRUCTIONS TO VISIBILITY.


WAZ001-503-506-510-514-515-260900-
NORTH INTERIOR
  
CITY           SKY/WX    TMP DP  RH WIND       PRES   REMARKS
BELLINGHAM     CLEAR     59  58  96 CALM      30.10R                  
FRIDAY HARBOR  CLEAR     56  47  71 CALM      30.11R                  
EASTSOUND      CLEAR     61  50  67 CALM      30.10R                  
PORT ANGELES   CLEAR     64  49  57 SW8       30.11S                  
EDIZ HOOK      FAIR      54  51  88 CALM      30.11R                  
PORT TOWNSEND  FAIR      57  54  88 CALM      30.10R                  
NAS WHIDBEY    PTCLDY    58  50  75 CALM      30.13F                  
ARLINGTON      CLEAR     61  53  75 CALM      30.11R                  
BURLINGTON     CLEAR     59  54  82 CALM      30.10S                  
$$
 

SKY/WX - Weather  TMP - Temperature  DP - Dew Point  RH - Humidity
WIND - Wind Direction/Speed PRES - Barometric Pressure VSB - Visibility
WCI - Wind Chill Index E13G22 Wind - East Wind 13 mph/Gusts of 22 mph

Trending Headlines

Conway Radar Loop



Conway Quick Facts


National Two Day Weather Forecast


E-mail the Conway Weather Forecast

Voice your opinion or tell us about page issues...